Miscellaneous Local Product
Issued by NWS Hastings, NE

Home | Current Version | Previous Version | Text Only | Print | Product List | Glossary On
Versions: 1 2 3 4 5 6 7 8 9 10 11 12 13 14 15 16 17 18 19 20 21 22 23 24 25 26 27 28 29 30 31 32 33 34 35 36 37 38 39 40 41 42 43 44 45 46 47 48 49 50
000
AXUS43 KGID 160302
MISGRI

GID CWA HOURLY WEATHER ROUNDUP
NATIONAL WEATHER SERVICE HASTINGS NE
900 PM CST FRI JAN 15 2021

NOTE: "FAIR" INDICATES FEW OR NO CLOUDS BELOW 12,000 FEET WITH NO
SIGNIFICANT WEATHER AND/OR OBSTRUCTIONS TO VISIBILITY.

...SOUTH CENTRAL NEBRASKA...

CITY           SKY/WX    TMP DP  RH WIND       PRES   REMARKS
GRAND ISLAND   CLOUDY    31  20  63 NW18G29   29.99S WCI  19
KEARNEY        CLOUDY    31  20  63 N18G29    30.00S WCI  19
HASTINGS       CLOUDY    31  20  63 NW24G31   29.98F WCI  17
ORD            CLOUDY    29  20  69 NW14G24   29.98F WCI  18
YORK           CLOUDY    28  23  80 NW23G33   29.95S WCI  14
AURORA         CLOUDY    31  23  72 NW23G32   29.97S WCI  17
LEXINGTON      CLEAR     27  19  71 NW10      30.02F WCI  17
HOLDREGE       CLOUDY    32  20  60 NW13G18   30.01S WCI  22
HEBRON         CLOUDY    32  23  69 N18G29    29.98S WCI  20

...NEBRASKA PANHANDLE...

CITY           SKY/WX    TMP DP  RH WIND       PRES   REMARKS
CHADRON        MOCLDY    26   4  38 CALM      30.01F
ALLIANCE       MOCLDY    23   5  46 N7        30.00F WCI  15
SCOTTSBLUFF    PTCLDY    30  12  47 W5        30.02F WCI  25
SIDNEY         PTCLDY    19   7  59 SW12      30.02F WCI   7

...WESTERN AND NORTH CENTRAL NEBRASKA...

CITY           SKY/WX    TMP DP  RH WIND       PRES   REMARKS
VALENTINE        N/A     22  14  71 NW5       30.01F WCI  16
AINSWORTH      CLEAR     21  15  80 W8        29.99F WCI  11
ONEILL         CLOUDY    26  20  80 NW20      29.98F WCI  12
BROKEN BOW     CLEAR     27  18  69 NW14      29.99F WCI  16
IMPERIAL       MOCLDY    30   8  39 NW12      30.05F WCI  20
NORTH PLATTE   CLEAR     22  12  65 NW6       30.03F WCI  14
MCCOOK         PTCLDY    27  11  51 NW12      30.05F WCI  17

...EASTERN NEBRASKA...

CITY           SKY/WX    TMP DP  RH WIND       PRES   REMARKS
NORFOLK        CLOUDY    29  20  69 N25G35    29.93F WCI  14
SO SIOUX CITY  MIX PCPN  29  24  82 N24G32    29.91R WCI  15
TEKAMAH        CLOUDY    31  24  75 NW26G36   29.90S WCI  17
COLUMBUS       CLOUDY    29  23  78 NW23G36   29.95R WCI  15
ALBION         CLOUDY    28  22  76 N16G28    29.96F WCI  16
OMAHA EPPLEY   FLURRIES  30  26  85 NW20G29   29.88R WCI  17
OFFUTT AFB     CLOUDY    31  24  74 NW18G29   29.88R WCI  19
MILLARD        MIX PCPN  32  26  78 NW12G23   29.90S WCI  23
LINCOLN        CLOUDY    31  23  72 N21G33    29.94R WCI  18
NEBRASKA CITY  CLOUDY    31  26  81 NW22G32   29.87S WCI  19
BEATRICE       CLOUDY    30  25  81 NW21      29.94R WCI  18
FALLS CITY     CLOUDY    31  26  82 NW22G30   29.87R WCI  18

...NORTHERN KANSAS...

CITY           SKY/WX    TMP DP  RH WIND       PRES   REMARKS
GOODLAND       PTCLDY    26   4  38 NW12      30.05F WCI  16
HILL CITY      PTCLDY    33  16  49 NW9       30.05S WCI  25
NORTON         FAIR      27  16  63 NW10      30.06F WCI  17
PHILLIPSBURG   CLOUDY    36  16  44 NW18      30.03F WCI  25
OBERLIN        FAIR      25  10  53 W6        30.10S WCI  18
SMITH CENTER   PTCLDY    32  23  69 NW14      30.02S WCI  22
HAYS           CLOUDY    35  18  49 NW12      30.04R WCI  27
RUSSELL        CLOUDY    34  17  50 N16       30.02R WCI  24
CONCORDIA      CLOUDY    33  21  61 NW20G30   29.98F WCI  21
SALINA         CLOUDY    35  22  58 NW18      30.00S WCI  24
TOPEKA         CLOUDY    33  24  69 NW17G30   29.91R WCI  22



USA.gov is the U.S. government's official web portal to all federal, state and local government web resources and services.